Weather History for Hazen, ND

Change the Weather History Date:

Friday, October 5, 2012

  Actual Average (KN60) Record (KN60)
Temperature  
Mean Temperature 31 °F -  
Max Temperature 39 °F 60 °F 85 °F (2011)
Min Temperature 23 °F 34 °F 19 °F (2000)
Degree Days  
Heating Degree Days 34    
Moisture  
Dew Point 21 °F    
Average Humidity 70    
Maximum Humidity 93    
Minimum Humidity 45    
Precipitation  
Precipitation 0.12 in - - ()
Sea Level Pressure  
Sea Level Pressure 30.37 in    
Wind  
Wind Speed 9 mph (NW)    
Max Wind Speed 23 mph    
Max Gust Speed 28 mph    
Visibility 10 miles    
Events Snow    
Averages and records for this station are not official NWS values.
T = Trace of Precipitation, MM = Missing Value Source: NWS Daily Summary

Daily Weather History Graph

Daily Weather History Graph

Search for Another Location

Airport:

Trip Planner

Search our weather history database for the weather conditions in past years. The results will help you decide how hot, cold, wet, or windy it might be!

Date:

Astronomy

Oct. 05, 2012 Rise Set
Actual Time 7:51 AM CDT 7:16 PM CDT
Civil Twilight 7:20 AM CDT 7:47 PM CDT
Nautical Twilight 6:45 AM CDT 8:22 PM CDT
Astronomical Twilight 6:09 AM CDT 8:58 PM CDT
Moon 10:22 PM CDT (10/5) 1:19 PM CDT (10/5)
Length of Visible Light 12h 26m
Length of Day
11h 25m
Waning Gibbous, 74% of the Moon is Illuminated
Oct 5
Waning Gibbous
Oct 8
Last Quarter
Oct 15
New
Oct 21
First Quarter
Oct 29
Full

Hourly Weather History & Observations

Time (CDT) Temp. Windchill Dew Point Humidity Pressure Visibility Wind Dir Wind Speed Gust Speed Precip Events Conditions
12:15 AM 28.4 °F 19.7 °F 24.8 °F 86% 30.35 in 10.0 mi WSW 9.2 mph - N/A   Clear
12:35 AM 28.4 °F 21.2 °F 24.8 °F 86% 30.35 in 10.0 mi SW 6.9 mph - N/A   Clear
12:55 AM 26.6 °F - 23.0 °F 86% 30.35 in 10.0 mi Calm Calm - N/A   Clear
1:15 AM 26.6 °F 18.2 °F 24.8 °F 93% 30.34 in 10.0 mi SW 8.1 mph - N/A   Clear
1:35 AM 26.6 °F 18.2 °F 23.0 °F 86% 30.34 in 10.0 mi WSW 8.1 mph - N/A   Clear
1:55 AM 26.6 °F 17.5 °F 23.0 °F 86% 30.34 in 10.0 mi WSW 9.2 mph - N/A   Clear
2:15 AM 26.6 °F 22.6 °F 23.0 °F 86% 30.35 in 10.0 mi NW 3.5 mph - N/A   Scattered Clouds
2:35 AM 24.8 °F 16.9 °F 23.0 °F 93% 30.35 in 10.0 mi WSW 6.9 mph - N/A   Mostly Cloudy
2:55 AM 24.8 °F 16.9 °F 23.0 °F 93% 30.35 in 10.0 mi WSW 6.9 mph - N/A   Scattered Clouds
3:15 AM 24.8 °F 17.9 °F 23.0 °F 93% 30.35 in 10.0 mi West 5.8 mph - N/A   Overcast
3:35 AM 24.8 °F 17.9 °F 23.0 °F 93% 30.35 in 10.0 mi West 5.8 mph - N/A   Overcast
3:55 AM 26.6 °F 19.1 °F 23.0 °F 86% 30.34 in 10.0 mi West 6.9 mph - N/A   Overcast
4:15 AM 24.8 °F 17.9 °F 23.0 °F 93% 30.34 in 10.0 mi WNW 5.8 mph - N/A   Partly Cloudy
4:35 AM 24.8 °F 20.5 °F 21.2 °F 86% 30.35 in 10.0 mi West 3.5 mph - N/A   Clear
4:55 AM 23.0 °F 18.4 °F 21.2 °F 93% 30.35 in 10.0 mi WNW 3.5 mph - N/A   Clear
5:15 AM 24.8 °F 19.1 °F 21.2 °F 86% 30.35 in 10.0 mi West 4.6 mph - N/A   Mostly Cloudy
5:35 AM 24.8 °F 19.1 °F 23.0 °F 93% 30.35 in 10.0 mi WNW 4.6 mph - N/A   Overcast
5:55 AM 26.6 °F 21.2 °F 23.0 °F 86% 30.36 in 10.0 mi WNW 4.6 mph - N/A   Overcast
6:15 AM 26.6 °F 21.2 °F 23.0 °F 86% 30.35 in 10.0 mi West 4.6 mph - N/A   Overcast
6:35 AM 24.8 °F 19.1 °F 23.0 °F 93% 30.35 in 10.0 mi West 4.6 mph - N/A   Overcast
6:55 AM 24.8 °F 17.9 °F 21.2 °F 86% 30.35 in 10.0 mi WNW 5.8 mph - N/A   Overcast
7:15 AM 24.8 °F 16.9 °F 23.0 °F 93% 30.36 in 10.0 mi North 6.9 mph - N/A   Overcast
7:35 AM 26.6 °F 18.2 °F 21.2 °F 80% 30.36 in 10.0 mi North 8.1 mph - N/A   Overcast
7:55 AM 26.6 °F 22.6 °F 23.0 °F 86% 30.37 in 10.0 mi WNW 3.5 mph - N/A   Overcast
8:15 AM 26.6 °F 18.2 °F 21.2 °F 80% 30.37 in 10.0 mi NNW 8.1 mph - N/A   Overcast
8:35 AM 28.4 °F 17.5 °F 21.2 °F 74% 30.38 in 10.0 mi NNW 13.8 mph 18.4 mph N/A   Scattered Clouds
8:55 AM 28.4 °F 19.1 °F 19.4 °F 69% 30.38 in 10.0 mi NNW 10.4 mph - N/A   Mostly Cloudy
9:15 AM 28.4 °F 18.0 °F 21.2 °F 74% 30.38 in 10.0 mi North 12.7 mph - N/A   Overcast
9:35 AM 28.4 °F 17.5 °F 21.2 °F 74% 30.39 in 10.0 mi NNW 13.8 mph 21.9 mph N/A   Overcast
9:55 AM 30.2 °F 19.8 °F 21.2 °F 69% 30.39 in 10.0 mi North 13.8 mph 20.7 mph N/A   Overcast
10:15 AM 30.2 °F 19.3 °F 19.4 °F 64% 30.39 in 10.0 mi NNW 15.0 mph 23.0 mph N/A   Overcast
10:35 AM 32.0 °F 22.1 °F 21.2 °F 64% 30.40 in 10.0 mi NNW 13.8 mph - N/A   Overcast
10:55 AM 32.0 °F 21.6 °F 19.4 °F 60% 30.40 in 10.0 mi NNW 15.0 mph - N/A   Overcast
11:15 AM 32.0 °F 22.1 °F 19.4 °F 60% 30.40 in 10.0 mi NNW 13.8 mph 20.7 mph N/A   Overcast
11:35 AM 32.0 °F 20.8 °F 19.4 °F 60% 30.40 in 10.0 mi NNW 17.3 mph 23.0 mph N/A   Overcast
11:55 AM 32.0 °F 20.8 °F 19.4 °F 60% 30.39 in 10.0 mi NNW 17.3 mph 23.0 mph N/A   Overcast
12:15 PM 33.8 °F 23.9 °F 19.4 °F 56% 30.39 in 10.0 mi NNW 15.0 mph 25.3 mph N/A   Mostly Cloudy
12:35 PM 35.6 °F 26.2 °F 21.2 °F 56% 30.39 in 10.0 mi North 15.0 mph - N/A   Mostly Cloudy
12:55 PM 35.6 °F 25.2 °F 21.2 °F 56% 30.39 in - NNW 18.4 mph 23.0 mph 0.09 in   Overcast
1:35 PM 37.4 °F 27.5 °F 19.4 °F 48% 30.38 in - NNW 18.4 mph 25.3 mph N/A   Mostly Cloudy
1:55 PM 37.4 °F 28.2 °F 19.4 °F 48% 30.38 in 10.0 mi North 16.1 mph 21.9 mph N/A   Mostly Cloudy
2:15 PM 37.4 °F 27.8 °F 21.2 °F 52% 30.37 in 10.0 mi NNW 17.3 mph 24.2 mph N/A   Mostly Cloudy
2:35 PM 39.2 °F 28.7 °F 21.2 °F 49% 30.37 in 10.0 mi North 23.0 mph 27.6 mph N/A   Mostly Cloudy
2:55 PM 39.2 °F 29.6 °F 19.4 °F 45% 30.36 in 10.0 mi NNW 19.6 mph 27.6 mph N/A   Scattered Clouds
3:15 PM 39.2 °F 31.2 °F 19.4 °F 45% 30.36 in 10.0 mi NNW 13.8 mph 21.9 mph N/A   Partly Cloudy
3:35 PM 39.2 °F 30.2 °F 19.4 °F 45% 30.36 in 10.0 mi NNW 17.3 mph 24.2 mph N/A   Clear
3:55 PM 39.2 °F 31.6 °F 19.4 °F 45% 30.35 in 10.0 mi NNW 12.7 mph 21.9 mph N/A   Clear
4:15 PM 39.2 °F 30.8 °F 19.4 °F 45% 30.35 in 10.0 mi North 15.0 mph 23.0 mph N/A   Clear
4:35 PM 39.2 °F 30.2 °F 19.4 °F 45% 30.36 in 10.0 mi NNW 17.3 mph 21.9 mph N/A   Clear
4:55 PM 37.4 °F 29.3 °F 19.4 °F 48% 30.36 in 10.0 mi North 12.7 mph 21.9 mph N/A   Clear
5:15 PM 37.4 °F 28.9 °F 19.4 °F 48% 30.36 in 10.0 mi North 13.8 mph - N/A   Clear
5:35 PM 37.4 °F 29.3 °F 19.4 °F 48% 30.36 in 10.0 mi North 12.7 mph 20.7 mph N/A   Clear
5:55 PM 37.4 °F 29.3 °F 17.6 °F 45% 30.37 in 10.0 mi North 12.7 mph - N/A   Clear
6:15 PM 37.4 °F 29.8 °F 17.6 °F 45% 30.37 in 10.0 mi North 11.5 mph 17.3 mph N/A   Clear
6:35 PM 35.6 °F 28.6 °F 19.4 °F 52% 30.37 in 10.0 mi NNW 9.2 mph 16.1 mph N/A   Clear
6:55 PM 35.6 °F 29.2 °F 19.4 °F 52% 30.37 in 10.0 mi NNW 8.1 mph - N/A   Clear
7:15 PM 33.8 °F 27.7 °F 19.4 °F 56% 30.38 in 10.0 mi NW 6.9 mph - N/A   Clear
7:35 PM 32.0 °F 26.4 °F 19.4 °F 60% 30.38 in 10.0 mi NW 5.8 mph - N/A   Partly Cloudy
7:55 PM 32.0 °F 26.4 °F 19.4 °F 60% 30.38 in 10.0 mi NW 5.8 mph - N/A   Mostly Cloudy
8:15 PM 30.2 °F 24.3 °F 19.4 °F 64% 30.39 in 10.0 mi North 5.8 mph - N/A   Overcast
8:35 PM 28.4 °F 24.6 °F 19.4 °F 69% 30.39 in 10.0 mi North 3.5 mph - N/A   Mostly Cloudy
8:55 PM 26.6 °F - 19.4 °F 74% 30.39 in 10.0 mi Calm Calm - N/A   Scattered Clouds
9:15 PM 26.6 °F 18.2 °F 19.4 °F 74% 30.40 in 10.0 mi North 8.1 mph - N/A   Scattered Clouds
9:35 PM 30.2 °F 23.4 °F 23.0 °F 75% 30.41 in 10.0 mi NNE 6.9 mph - N/A   Mostly Cloudy
9:55 PM 30.2 °F 24.3 °F 23.0 °F 75% 30.41 in 10.0 mi NNE 5.8 mph - N/A   Overcast
10:15 PM 30.2 °F - 24.8 °F 80% 30.41 in 10.0 mi Calm Calm - N/A   Overcast
10:35 PM 30.2 °F 26.7 °F 24.8 °F 80% 30.41 in 10.0 mi North 3.5 mph - N/A   Overcast
10:55 PM 32.0 °F 26.4 °F 24.8 °F 75% 30.41 in 10.0 mi North 5.8 mph - N/A   Overcast
11:15 PM 32.0 °F - 26.6 °F 80% 30.42 in 10.0 mi Calm Calm - N/A   Overcast
11:55 PM 32.0 °F 28.7 °F 28.4 °F 87% 30.42 in 3.0 mi NW 3.5 mph - 0.03 in Snow Light Snow